Powrót do katalogu

COSMOS 1234

AktywnyMilitariaLEO
NORAD 12113·PAYLOAD·🇷🇺 Russia

Wystrzelony Dec 23, 1980 z Plesetsk Cosmodrome

Loading…

Następne Przeloty (najbliższe 24 godziny)

TLE

ŚwieżeSource: Space-Track

Epoka: Sep 14, 2026, 23:35 UTC

1 12113U 80102G   26257.98280962 -.00000022  00000-0 -31189-4 0  9997
2 12113  73.9907 246.3980 0035863 296.9000  91.1152 12.56714466 97601

Śledź COSMOS 1234 w czasie rzeczywistym z AllMySat

Download on the App Store